Location: D�rnast
(49.6426°N, 11.9755°E)
Time: 20:27:13
(UTC+00:00)

ISS - Pass Details

Date: 27 April 2021
Orbit: 418 x 421 km, 51.6° (Epoch: 07 May)

Event Time Altitude Azimuth Distance (km) Brightness Sun altitude
Exits shadow 03:01:01 - 194° (SSW) 1,826 -1.0 -8.7°
Reaches altitude 10° 03:02:04 10° 184° (S) 1,498 -1.3 -8.6°
Maximum altitude 03:04:24 18° 140° (SE) 1,122 -1.5 -8.3°
Drops below altitude 10° 03:06:44 10° 96° (E) 1,506 -0.1 -8.0°
Sets 03:09:18 0° 76° (ENE) 2,375 1.7 -7.6°
